Wetterdaten: Woche 03.11.14 - 09.11.14 (KW45)
Datum Zeit Temp. Aussen +5cm Feuchte Auss Luftdruck Regen Sonnenschein Regendauer Solar Windben
03.11.2014 00:00 13,9 C 12,1 C 95 % 1005,5 hPa 0,0 l/m 0,00 h 0,88 h 0 W/m 18,1 km/h (3 Bft)
03.11.2014 01:00 13,9 C 12,0 C 95 % 1005,0 hPa 0,2 l/m 0,00 h 1,00 h 0 W/m 18,0 km/h (3 Bft)
03.11.2014 02:00 14,2 C 12,2 C 94 % 1004,5 hPa 0,0 l/m 0,00 h 1,00 h 0 W/m 17,5 km/h (3 Bft)
03.11.2014 03:00 14,3 C 12,1 C 92 % 1004,0 hPa 0,4 l/m 0,00 h 1,00 h 0 W/m 21,5 km/h (4 Bft)
03.11.2014 04:00 13,9 C 11,0 C 88 % 1004,0 hPa 0,0 l/m 0,00 h 1,00 h 0 W/m 27,9 km/h (4 Bft)
03.11.2014 05:00 13,2 C 10,6 C 87 % 1003,8 hPa 0,0 l/m 0,00 h 1,00 h 0 W/m 17,4 km/h (3 Bft)
03.11.2014 06:00 12,6 C 10,2 C 88 % 1003,6 hPa 0,0 l/m 0,00 h 0,00 h 0 W/m 14,2 km/h (3 Bft)
03.11.2014 07:00 12,2 C 10,0 C 89 % 1003,4 hPa 0,0 l/m 0,27 h 0,00 h 15 W/m 17,6 km/h (3 Bft)
03.11.2014 08:00 12,5 C 10,7 C 85 % 1003,4 hPa 0,0 l/m 0,83 h 0,00 h 85 W/m 23,3 km/h (4 Bft)
03.11.2014 09:00 13,4 C 12,1 C 83 % 1003,0 hPa 0,0 l/m 1,00 h 0,00 h 210 W/m 22,7 km/h (4 Bft)
03.11.2014 10:00 14,7 C 13,2 C 78 % 1002,5 hPa 0,0 l/m 0,70 h 0,00 h 196 W/m 25,7 km/h (4 Bft)
03.11.2014 11:00 15,3 C 14,2 C 76 % 1001,5 hPa 0,0 l/m 0,63 h 0,00 h 212 W/m 26,8 km/h (4 Bft)
03.11.2014 12:00 15,9 C 14,7 C 76 % 1000,1 hPa 0,0 l/m 0,03 h 0,00 h 151 W/m 25,4 km/h (4 Bft)
03.11.2014 13:00 16,2 C 14,7 C 75 % 998,7 hPa 0,0 l/m 0,00 h 0,00 h 103 W/m 27,5 km/h (4 Bft)
03.11.2014 14:00 15,8 C 14,4 C 75 % 997,6 hPa 0,0 l/m 0,00 h 0,00 h 70 W/m 27,1 km/h (4 Bft)
03.11.2014 15:00 15,9 C 14,2 C 71 % 996,8 hPa 0,0 l/m 0,00 h 0,00 h 59 W/m 29,4 km/h (5 Bft)
03.11.2014 16:00 15,7 C 13,7 C 71 % 996,2 hPa 0,0 l/m 0,00 h 0,00 h 12 W/m 28,0 km/h (4 Bft)
03.11.2014 17:00 14,9 C 12,5 C 79 % 995,5 hPa 0,2 l/m 0,00 h 0,37 h 0 W/m 29,8 km/h (5 Bft)
03.11.2014 18:00 13,8 C 11,4 C 86 % 995,3 hPa 0,2 l/m 0,00 h 0,97 h 0 W/m 27,8 km/h (4 Bft)
03.11.2014 19:00 13,8 C 11,2 C 87 % 995,0 hPa 0,2 l/m 0,00 h 1,00 h 0 W/m 26,2 km/h (4 Bft)
03.11.2014 20:00 13,7 C 11,4 C 87 % 994,1 hPa 0,0 l/m 0,00 h 0,30 h 0 W/m 24,3 km/h (4 Bft)
03.11.2014 21:00 14,0 C 12,1 C 84 % 993,3 hPa 0,0 l/m 0,00 h 0,00 h 0 W/m 28,0 km/h (4 Bft)
03.11.2014 22:00 14,3 C 12,8 C 84 % 992,2 hPa 0,0 l/m 0,00 h 0,00 h 0 W/m 28,7 km/h (4 Bft)
03.11.2014 23:00 12,7 C 9,9 C 86 % 992,8 hPa 6,4 l/m 0,00 h 0,87 h 0 W/m 18,4 km/h (3 Bft)
04.11.2014 00:00 10,2 C 8,6 C 92 % 993,2 hPa 1,6 l/m 0,00 h 0,98 h 0 W/m 9,1 km/h (2 Bft)
04.11.2014 01:00 9,8 C 8,8 C 94 % 993,0 hPa 0,8 l/m 0,00 h 1,00 h 0 W/m 7,7 km/h (2 Bft)
04.11.2014 02:00 9,8 C 8,8 C 96 % 993,1 hPa 0,4 l/m 0,00 h 1,00 h 0 W/m 9,3 km/h (2 Bft)
04.11.2014 03:00 9,6 C 8,4 C 96 % 992,8 hPa 0,4 l/m 0,00 h 1,00 h 0 W/m 9,4 km/h (2 Bft)
04.11.2014 04:00 9,4 C 8,3 C 96 % 992,7 hPa 0,2 l/m 0,00 h 0,10 h 0 W/m 6,9 km/h (2 Bft)
04.11.2014 05:00 9,3 C 8,3 C 97 % 992,9 hPa 1,0 l/m 0,00 h 0,90 h 0 W/m 5,9 km/h (2 Bft)
04.11.2014 06:00 9,3 C 8,3 C 97 % 993,4 hPa 0,8 l/m 0,00 h 0,95 h 0 W/m 6,2 km/h (2 Bft)
04.11.2014 07:00 9,2 C 8,3 C 97 % 993,9 hPa 0,0 l/m 0,00 h 0,10 h 10 W/m 3,9 km/h (1 Bft)
04.11.2014 08:00 9,2 C 8,3 C 97 % 995,0 hPa 0,0 l/m 0,00 h 0,00 h 26 W/m 8,5 km/h (2 Bft)
04.11.2014 09:00 9,5 C 8,8 C 98 % 995,4 hPa 0,0 l/m 0,00 h 0,83 h 44 W/m 9,2 km/h (2 Bft)
04.11.2014 10:00 9,8 C 9,5 C 98 % 995,9 hPa 0,0 l/m 0,00 h 0,33 h 84 W/m 9,4 km/h (2 Bft)
04.11.2014 11:00 10,3 C 10,1 C 98 % 995,8 hPa 0,0 l/m 0,00 h 0,00 h 122 W/m 10,1 km/h (2 Bft)
04.11.2014 12:00 10,7 C 10,4 C 97 % 995,4 hPa 0,0 l/m 0,00 h 0,40 h 131 W/m 9,3 km/h (2 Bft)
04.11.2014 13:00 11,1 C 10,4 C 95 % 995,4 hPa 0,0 l/m 0,00 h 0,00 h 104 W/m 9,8 km/h (2 Bft)
04.11.2014 14:00 11,1 C 10,0 C 91 % 995,3 hPa 0,0 l/m 0,00 h 0,37 h 58 W/m 10,6 km/h (2 Bft)
04.11.2014 15:00 10,8 C 9,6 C 93 % 995,1 hPa 0,0 l/m 0,00 h 0,03 h 44 W/m 9,6 km/h (2 Bft)
04.11.2014 16:00 10,4 C 9,1 C 94 % 995,7 hPa 0,0 l/m 0,00 h 0,80 h 11 W/m 8,8 km/h (2 Bft)
04.11.2014 17:00 10,0 C 8,4 C 95 % 995,7 hPa 0,0 l/m 0,00 h 1,00 h 5 W/m 7,1 km/h (2 Bft)
04.11.2014 18:00 9,5 C 8,3 C 95 % 996,0 hPa 0,0 l/m 0,00 h 0,97 h 0 W/m 4,6 km/h (1 Bft)
04.11.2014 19:00 9,4 C 8,3 C 95 % 996,0 hPa 0,0 l/m 0,00 h 1,00 h 0 W/m 3,2 km/h (1 Bft)
04.11.2014 20:00 9,4 C 8,3 C 96 % 996,1 hPa 0,0 l/m 0,00 h 1,00 h 0 W/m 3,5 km/h (1 Bft)
04.11.2014 21:00 9,3 C 7,9 C 96 % 996,2 hPa 0,0 l/m 0,00 h 1,00 h 0 W/m 3,0 km/h (1 Bft)
04.11.2014 22:00 9,0 C 7,8 C 96 % 996,4 hPa 0,0 l/m 0,00 h 1,00 h 0 W/m 1,6 km/h (1 Bft)
04.11.2014 23:00 8,8 C 7,7 C 96 % 996,8 hPa 0,0 l/m 0,00 h 0,17 h 0 W/m 1,8 km/h (1 Bft)
05.11.2014 00:00 8,6 C 7,7 C 96 % 997,2 hPa 0,0 l/m 0,00 h 0,07 h 0 W/m 2,3 km/h (1 Bft)
05.11.2014 01:00 8,6 C 7,4 C 96 % 997,3 hPa 0,0 l/m 0,00 h 0,20 h 0 W/m 3,6 km/h (1 Bft)
05.11.2014 02:00 8,3 C 7,2 C 96 % 998,1 hPa 0,0 l/m 0,00 h 0,07 h 0 W/m 4,1 km/h (1 Bft)
05.11.2014 03:00 8,0 C 6,7 C 96 % 997,9 hPa 0,0 l/m 0,00 h 0,07 h 0 W/m 3,6 km/h (1 Bft)
05.11.2014 04:00 7,7 C 6,7 C 96 % 998,5 hPa 0,0 l/m 0,00 h 0,00 h 0 W/m 4,2 km/h (1 Bft)
05.11.2014 05:00 7,5 C 6,6 C 97 % 998,5 hPa 0,0 l/m 0,00 h 0,10 h 0 W/m 2,8 km/h (1 Bft)
05.11.2014 06:00 7,4 C 6,5 C 97 % 998,8 hPa 0,0 l/m 0,00 h 0,13 h 0 W/m 5,5 km/h (1 Bft)
05.11.2014 07:00 7,3 C 6,3 C 97 % 999,5 hPa 0,0 l/m 0,00 h 0,03 h 8 W/m 4,9 km/h (1 Bft)
05.11.2014 08:00 7,4 C 6,7 C 97 % 1000,3 hPa 0,0 l/m 0,00 h 0,00 h 39 W/m 3,5 km/h (1 Bft)
05.11.2014 09:00 7,9 C 8,1 C 98 % 1000,9 hPa 0,2 l/m 0,03 h 0,07 h 102 W/m 2,9 km/h (1 Bft)
05.11.2014 10:00 9,0 C 9,1 C 98 % 1001,5 hPa 0,0 l/m 0,20 h 0,00 h 140 W/m 5,5 km/h (1 Bft)
05.11.2014 11:00 9,9 C 10,0 C 98 % 1001,8 hPa 0,0 l/m 0,67 h 0,00 h 224 W/m 8,1 km/h (2 Bft)
05.11.2014 12:00 10,8 C 10,3 C 92 % 1001,9 hPa 0,0 l/m 0,00 h 0,00 h 132 W/m 11,5 km/h (2 Bft)
05.11.2014 13:00 10,7 C 9,9 C 88 % 1002,6 hPa 0,0 l/m 0,00 h 0,00 h 82 W/m 8,2 km/h (2 Bft)
05.11.2014 14:00 10,5 C 9,7 C 89 % 1003,0 hPa 0,0 l/m 0,00 h 0,00 h 95 W/m 6,5 km/h (2 Bft)
05.11.2014 15:00 10,0 C 9,0 C 89 % 1003,1 hPa 0,0 l/m 0,00 h 0,00 h 43 W/m 6,4 km/h (2 Bft)
05.11.2014 16:00 9,8 C 8,6 C 90 % 1003,8 hPa 0,0 l/m 0,20 h 0,00 h 27 W/m 5,2 km/h (1 Bft)
05.11.2014 17:00 9,5 C 8,2 C 92 % 1004,3 hPa 0,0 l/m 0,00 h 0,00 h 5 W/m 4,3 km/h (1 Bft)
05.11.2014 18:00 9,1 C 7,5 C 92 % 1005,0 hPa 0,0 l/m 0,00 h 0,00 h 0 W/m 3,2 km/h (1 Bft)
05.11.2014 19:00 8,8 C 7,5 C 93 % 1005,2 hPa 0,0 l/m 0,00 h 0,00 h 0 W/m 2,6 km/h (1 Bft)
05.11.2014 20:00 8,7 C 7,7 C 94 % 1005,9 hPa 0,0 l/m 0,00 h 0,00 h 0 W/m 5,2 km/h (1 Bft)
05.11.2014 21:00 8,6 C 6,9 C 94 % 1006,4 hPa 0,0 l/m 0,00 h 0,00 h 0 W/m 2,4 km/h (1 Bft)
05.11.2014 22:00 7,7 C 5,7 C 94 % 1006,9 hPa 0,0 l/m 0,00 h 0,00 h 0 W/m 5,5 km/h (1 Bft)
05.11.2014 23:00 6,7 C 4,7 C 94 % 1007,2 hPa 0,0 l/m 0,00 h 0,00 h 0 W/m 4,8 km/h (1 Bft)
06.11.2014 00:00 5,9 C 4,9 C 94 % 1007,7 hPa 0,0 l/m 0,00 h 0,00 h 0 W/m 3,9 km/h (1 Bft)
06.11.2014 01:00 5,6 C 3,9 C 95 % 1007,9 hPa 0,0 l/m 0,00 h 0,00 h 0 W/m 4,9 km/h (1 Bft)
06.11.2014 02:00 4,9 C 3,4 C 95 % 1008,3 hPa 0,0 l/m 0,00 h 0,00 h 0 W/m 6,7 km/h (2 Bft)
06.11.2014 03:00 4,7 C 3,7 C 95 % 1008,4 hPa 0,0 l/m 0,00 h 0,00 h 0 W/m 7,0 km/h (2 Bft)
06.11.2014 04:00 5,0 C 4,4 C 96 % 1008,7 hPa 0,0 l/m 0,00 h 0,00 h 0 W/m 6,1 km/h (2 Bft)
06.11.2014 05:00 5,2 C 4,5 C 96 % 1009,1 hPa 0,0 l/m 0,00 h 0,00 h 0 W/m 4,7 km/h (1 Bft)
06.11.2014 06:00 5,2 C 4,5 C 97 % 1009,3 hPa 0,0 l/m 0,00 h 0,00 h 0 W/m 6,8 km/h (2 Bft)
06.11.2014 07:00 5,6 C 5,1 C 97 % 1009,9 hPa 0,0 l/m 0,00 h 0,00 h 8 W/m 7,4 km/h (2 Bft)
06.11.2014 08:00 6,0 C 5,7 C 97 % 1010,6 hPa 0,0 l/m 0,03 h 0,00 h 33 W/m 6,9 km/h (2 Bft)
06.11.2014 09:00 6,8 C 7,1 C 97 % 1010,9 hPa 0,0 l/m 0,10 h 0,00 h 87 W/m 6,0 km/h (2 Bft)
06.11.2014 10:00 7,9 C 8,0 C 97 % 1011,0 hPa 0,0 l/m 0,57 h 0,00 h 206 W/m 10,1 km/h (2 Bft)
06.11.2014 11:00 9,4 C 8,7 C 89 % 1011,0 hPa 0,0 l/m 0,50 h 0,00 h 215 W/m 12,7 km/h (3 Bft)
06.11.2014 12:00 10,5 C 9,5 C 81 % 1010,8 hPa 0,0 l/m 0,23 h 0,00 h 180 W/m 13,1 km/h (3 Bft)
06.11.2014 13:00 10,1 C 9,1 C 82 % 1010,6 hPa 0,0 l/m 0,00 h 0,00 h 97 W/m 13,5 km/h (3 Bft)
06.11.2014 14:00 9,9 C 9,0 C 82 % 1010,6 hPa 0,0 l/m 0,00 h 0,00 h 90 W/m 16,5 km/h (3 Bft)
06.11.2014 15:00 9,7 C 8,2 C 84 % 1010,7 hPa 0,0 l/m 0,00 h 0,23 h 41 W/m 15,8 km/h (3 Bft)
06.11.2014 16:00 8,7 C 7,0 C 90 % 1010,8 hPa 0,2 l/m 0,00 h 0,33 h 12 W/m 15,6 km/h (3 Bft)
06.11.2014 17:00 8,3 C 6,7 C 91 % 1010,9 hPa 0,0 l/m 0,00 h 0,27 h 0 W/m 15,3 km/h (3 Bft)
06.11.2014 18:00 8,2 C 6,7 C 92 % 1011,2 hPa 0,0 l/m 0,00 h 0,23 h 0 W/m 9,6 km/h (2 Bft)
06.11.2014 19:00 8,1 C 6,3 C 91 % 1011,3 hPa 0,0 l/m 0,00 h 0,00 h 0 W/m 10,6 km/h (2 Bft)
06.11.2014 20:00 7,5 C 5,3 C 88 % 1011,3 hPa 0,0 l/m 0,00 h 0,00 h 0 W/m 13,5 km/h (3 Bft)
06.11.2014 21:00 6,3 C 4,0 C 88 % 1011,3 hPa 0,0 l/m 0,00 h 0,00 h 0 W/m 8,3 km/h (2 Bft)
06.11.2014 22:00 5,2 C 3,3 C 90 % 1010,9 hPa 0,0 l/m 0,00 h 0,00 h 0 W/m 11,3 km/h (2 Bft)
06.11.2014 23:00 4,7 C 3,1 C 92 % 1010,3 hPa 0,0 l/m 0,00 h 0,00 h 0 W/m 11,1 km/h (2 Bft)
07.11.2014 00:00 4,0 C 2,5 C 93 % 1010,0 hPa 0,0 l/m 0,00 h 0,00 h 0 W/m 9,7 km/h (2 Bft)
07.11.2014 01:00 3,5 C 2,2 C 94 % 1009,6 hPa 0,0 l/m 0,00 h 0,00 h 0 W/m 9,4 km/h (2 Bft)
07.11.2014 02:00 3,2 C 2,1 C 94 % 1009,0 hPa 0,0 l/m 0,00 h 0,00 h 0 W/m 12,6 km/h (3 Bft)
07.11.2014 03:00 3,4 C 2,4 C 96 % 1008,3 hPa 0,0 l/m 0,00 h 0,00 h 0 W/m 20,3 km/h (4 Bft)
07.11.2014 04:00 3,6 C 2,7 C 96 % 1007,3 hPa 0,0 l/m 0,00 h 0,00 h 0 W/m 22,6 km/h (4 Bft)
07.11.2014 05:00 3,5 C 2,2 C 96 % 1006,5 hPa 0,0 l/m 0,00 h 0,00 h 0 W/m 20,3 km/h (4 Bft)
07.11.2014 06:00 3,4 C 2,2 C 96 % 1005,9 hPa 0,2 l/m 0,00 h 0,00 h 0 W/m 22,6 km/h (4 Bft)
07.11.2014 07:00 3,3 C 2,2 C 96 % 1005,4 hPa 0,0 l/m 0,03 h 0,00 h 10 W/m 20,1 km/h (4 Bft)
07.11.2014 08:00 3,7 C 3,1 C 96 % 1005,1 hPa 0,0 l/m 0,20 h 0,00 h 47 W/m 22,3 km/h (4 Bft)
07.11.2014 09:00 5,0 C 4,6 C 96 % 1004,4 hPa 0,0 l/m 0,00 h 0,00 h 75 W/m 30,0 km/h (5 Bft)
07.11.2014 10:00 6,1 C 5,8 C 93 % 1003,7 hPa 0,0 l/m 0,00 h 0,00 h 123 W/m 28,9 km/h (5 Bft)
07.11.2014 11:00 6,9 C 6,5 C 89 % 1003,3 hPa 0,0 l/m 0,00 h 0,00 h 131 W/m 32,9 km/h (5 Bft)
07.11.2014 12:00 7,3 C 6,9 C 87 % 1002,6 hPa 0,0 l/m 0,00 h 0,00 h 140 W/m 34,8 km/h (5 Bft)
07.11.2014 13:00 7,6 C 6,9 C 86 % 1002,1 hPa 0,0 l/m 0,00 h 0,07 h 97 W/m 32,9 km/h (5 Bft)
07.11.2014 14:00 7,7 C 6,6 C 89 % 1002,3 hPa 0,0 l/m 0,00 h 0,00 h 64 W/m 26,7 km/h (4 Bft)
07.11.2014 15:00 8,3 C 7,5 C 86 % 1002,8 hPa 0,0 l/m 0,00 h 0,00 h 34 W/m 25,7 km/h (4 Bft)
07.11.2014 16:00 8,7 C 7,6 C 85 % 1003,4 hPa 0,0 l/m 0,00 h 0,00 h 12 W/m 21,5 km/h (4 Bft)
07.11.2014 17:00 8,9 C 7,5 C 87 % 1003,7 hPa 0,0 l/m 0,00 h 0,00 h 0 W/m 19,6 km/h (3 Bft)
07.11.2014 18:00 8,4 C 6,8 C 88 % 1004,5 hPa 0,0 l/m 0,00 h 0,00 h 0 W/m 17,7 km/h (3 Bft)
07.11.2014 19:00 8,2 C 6,6 C 90 % 1005,0 hPa 0,0 l/m 0,00 h 0,00 h 0 W/m 15,9 km/h (3 Bft)
07.11.2014 20:00 7,7 C 5,9 C 91 % 1005,3 hPa 0,0 l/m 0,00 h 0,00 h 0 W/m 16,2 km/h (3 Bft)
07.11.2014 21:00 7,2 C 5,6 C 92 % 1005,9 hPa 0,0 l/m 0,00 h 0,00 h 0 W/m 13,7 km/h (3 Bft)
07.11.2014 22:00 7,2 C 5,5 C 94 % 1006,3 hPa 0,2 l/m 0,00 h 0,17 h 0 W/m 13,4 km/h (3 Bft)
07.11.2014 23:00 7,0 C 5,0 C 94 % 1006,3 hPa 0,0 l/m 0,00 h 0,00 h 0 W/m 12,4 km/h (3 Bft)
08.11.2014 00:00 6,8 C 5,0 C 95 % 1006,7 hPa 0,0 l/m 0,00 h 0,00 h 0 W/m 13,0 km/h (3 Bft)
08.11.2014 01:00 6,8 C 5,0 C 95 % 1006,9 hPa 0,0 l/m 0,00 h 0,00 h 0 W/m 12,5 km/h (3 Bft)
08.11.2014 02:00 6,8 C 5,1 C 95 % 1007,1 hPa 0,0 l/m 0,00 h 0,00 h 0 W/m 11,6 km/h (2 Bft)
08.11.2014 03:00 7,3 C 6,3 C 96 % 1007,4 hPa 0,0 l/m 0,00 h 0,00 h 0 W/m 15,0 km/h (3 Bft)
08.11.2014 04:00 9,0 C 8,0 C 94 % 1007,7 hPa 0,0 l/m 0,00 h 0,00 h 0 W/m 19,4 km/h (3 Bft)
08.11.2014 05:00 9,8 C 8,1 C 89 % 1008,0 hPa 0,0 l/m 0,00 h 0,00 h 0 W/m 20,8 km/h (4 Bft)
08.11.2014 06:00 9,3 C 7,3 C 88 % 1008,7 hPa 0,0 l/m 0,00 h 0,00 h 0 W/m 14,2 km/h (3 Bft)
08.11.2014 07:00 8,7 C 7,0 C 90 % 1009,3 hPa 0,0 l/m 0,07 h 0,00 h 9 W/m 18,7 km/h (3 Bft)
08.11.2014 08:00 8,6 C 7,2 C 90 % 1009,9 hPa 0,0 l/m 0,60 h 0,00 h 59 W/m 16,4 km/h (3 Bft)
08.11.2014 09:00 9,4 C 8,3 C 89 % 1010,4 hPa 0,0 l/m 1,00 h 0,00 h 183 W/m 19,1 km/h (3 Bft)
08.11.2014 10:00 11,3 C 9,4 C 82 % 1010,7 hPa 0,0 l/m 1,00 h 0,00 h 296 W/m 20,2 km/h (4 Bft)
08.11.2014 11:00 12,9 C 10,7 C 76 % 1010,8 hPa 0,0 l/m 1,00 h 0,00 h 353 W/m 24,5 km/h (4 Bft)
08.11.2014 12:00 14,1 C 11,7 C 71 % 1010,6 hPa 0,0 l/m 0,97 h 0,00 h 364 W/m 25,0 km/h (4 Bft)
08.11.2014 13:00 14,7 C 12,3 C 69 % 1010,4 hPa 0,0 l/m 1,00 h 0,00 h 327 W/m 21,7 km/h (4 Bft)
08.11.2014 14:00 14,6 C 12,0 C 68 % 1010,1 hPa 0,0 l/m 1,00 h 0,00 h 203 W/m 22,6 km/h (4 Bft)
08.11.2014 15:00 13,8 C 11,2 C 70 % 1009,8 hPa 0,0 l/m 0,70 h 0,00 h 101 W/m 19,4 km/h (3 Bft)
08.11.2014 16:00 12,4 C 9,9 C 75 % 1009,7 hPa 0,0 l/m 0,07 h 0,00 h 22 W/m 20,8 km/h (4 Bft)
08.11.2014 17:00 11,2 C 8,9 C 79 % 1009,7 hPa 0,0 l/m 0,00 h 0,00 h 0 W/m 19,0 km/h (3 Bft)
08.11.2014 18:00 10,3 C 7,9 C 81 % 1009,7 hPa 0,0 l/m 0,00 h 0,00 h 0 W/m 13,3 km/h (3 Bft)
08.11.2014 19:00 9,5 C 7,0 C 83 % 1009,6 hPa 0,0 l/m 0,00 h 0,00 h 0 W/m 9,9 km/h (2 Bft)
08.11.2014 20:00 8,8 C 7,2 C 87 % 1009,4 hPa 0,0 l/m 0,00 h 0,00 h 0 W/m 15,6 km/h (3 Bft)
08.11.2014 21:00 8,6 C 7,0 C 89 % 1009,4 hPa 0,0 l/m 0,00 h 0,00 h 0 W/m 14,9 km/h (3 Bft)
08.11.2014 22:00 8,1 C 6,3 C 90 % 1009,2 hPa 0,0 l/m 0,00 h 0,00 h 0 W/m 14,6 km/h (3 Bft)
08.11.2014 23:00 7,7 C 6,1 C 92 % 1009,0 hPa 0,0 l/m 0,00 h 0,00 h 0 W/m 17,4 km/h (3 Bft)
09.11.2014 00:00 7,5 C 6,0 C 93 % 1008,6 hPa 0,0 l/m 0,00 h 0,00 h 0 W/m 17,1 km/h (3 Bft)
09.11.2014 01:00 7,3 C 5,7 C 94 % 1008,2 hPa 0,0 l/m 0,00 h 0,00 h 0 W/m 13,7 km/h (3 Bft)
09.11.2014 02:00 7,2 C 5,8 C 94 % 1007,9 hPa 0,0 l/m 0,00 h 0,00 h 0 W/m 14,8 km/h (3 Bft)
09.11.2014 03:00 6,9 C 5,5 C 94 % 1007,6 hPa 0,0 l/m 0,00 h 0,00 h 0 W/m 14,6 km/h (3 Bft)
09.11.2014 04:00 6,7 C 5,5 C 94 % 1007,6 hPa 0,0 l/m 0,00 h 0,00 h 0 W/m 16,1 km/h (3 Bft)
09.11.2014 05:00 6,8 C 5,5 C 94 % 1007,3 hPa 0,0 l/m 0,00 h 0,00 h 0 W/m 17,2 km/h (3 Bft)
09.11.2014 06:00 6,7 C 5,0 C 93 % 1007,1 hPa 0,0 l/m 0,00 h 0,00 h 0 W/m 15,7 km/h (3 Bft)
09.11.2014 07:00 6,6 C 5,0 C 94 % 1007,5 hPa 0,0 l/m 0,00 h 0,00 h 8 W/m 13,9 km/h (3 Bft)
09.11.2014 08:00 6,7 C 5,6 C 94 % 1007,6 hPa 0,0 l/m 0,47 h 0,00 h 54 W/m 18,5 km/h (3 Bft)
09.11.2014 09:00 7,6 C 6,9 C 94 % 1007,7 hPa 0,0 l/m 0,63 h 0,00 h 123 W/m 19,5 km/h (3 Bft)
09.11.2014 10:00 9,0 C 8,4 C 91 % 1007,7 hPa 0,0 l/m 0,90 h 0,00 h 305 W/m 24,5 km/h (4 Bft)
09.11.2014 11:00 11,1 C 9,6 C 84 % 1007,6 hPa 0,0 l/m 0,90 h 0,00 h 314 W/m 23,6 km/h (4 Bft)
09.11.2014 12:00 11,7 C 10,0 C 81 % 1007,1 hPa 0,0 l/m 0,88 h 0,00 h 274 W/m 20,3 km/h (4 Bft)
09.11.2014 13:00 12,3 C 10,6 C 80 % 1006,9 hPa 0,0 l/m 0,90 h 0,00 h 279 W/m 17,4 km/h (3 Bft)
09.11.2014 14:00 12,4 C 10,6 C 79 % 1006,7 hPa 0,0 l/m 0,20 h 0,00 h 120 W/m 17,8 km/h (3 Bft)
09.11.2014 15:00 11,6 C 10,2 C 82 % 1007,1 hPa 0,0 l/m 0,00 h 0,00 h 53 W/m 16,1 km/h (3 Bft)
09.11.2014 16:00 11,0 C 9,3 C 84 % 1007,2 hPa 0,0 l/m 0,00 h 0,00 h 17 W/m 12,7 km/h (3 Bft)
09.11.2014 17:00 10,2 C 8,2 C 86 % 1007,6 hPa 0,0 l/m 0,00 h 0,00 h 0 W/m 11,3 km/h (2 Bft)
09.11.2014 18:00 9,3 C 7,8 C 89 % 1007,9 hPa 0,0 l/m 0,00 h 0,00 h 0 W/m 13,0 km/h (3 Bft)
09.11.2014 19:00 9,1 C 7,8 C 90 % 1007,9 hPa 0,0 l/m 0,00 h 0,00 h 0 W/m 13,2 km/h (3 Bft)
09.11.2014 20:00 8,9 C 7,3 C 91 % 1007,8 hPa 0,0 l/m 0,00 h 0,00 h 0 W/m 12,2 km/h (2 Bft)
09.11.2014 21:00 8,7 C 7,3 C 92 % 1008,1 hPa 0,0 l/m 0,00 h 0,00 h 0 W/m 13,8 km/h (3 Bft)
09.11.2014 22:00 8,8 C 7,7 C 93 % 1008,5 hPa 0,0 l/m 0,00 h 0,00 h 0 W/m 15,7 km/h (3 Bft)
09.11.2014 23:00 8,9 C 7,5 C 93 % 1008,7 hPa 0,0 l/m 0,00 h 0,20 h 0 W/m 9,5 km/h (2 Bft)
Min-Datum _ 07.11.14 07.11.14 08.11.14 03.11.14 - - - - 04.11.14
_ Min-Zeit 02:22 02:08 13:56 22:48 - - - - 07:02
Minimum _ 3,1 C 1,7 C 67 % 991,7 hPa - - - - 0,0 km/h (0 Bft)
Max-Datum _ 03.11.14 03.11.14 04.11.14 06.11.14 03.11.14 03.11.14 03.11.14 06.11.14 07.11.14
_ Max-Zeit 12:54 11:40 09:18 19:28 23:14 07:44 00:00 11:58 13:16
Maximum _ 16,2 C 15,0 C 98 % 1011,4 hPa 6,4 l/m 0,03 h 0,03 h 481 W/m 54,4 km/h
S-SO (7 Bft)
Durchschnitt _ 9,2 C 7,9 C 90 % 1004,1 hPa #13,6 l/m #18:31 h #26:43 h 108 W/m 14,3 km/h (3 Bft)
© 2014 W. Hausmann